sat.trackr.live / text

‹ back to catalog

STARLINK-37441

NORAD 68858 · 2026-094V

PAYLOAD ACTIVE UNKNOWN

§ Identity

Operator
Country
US
Launch date
2026-04-26
Launch site
AFWTR
Launch vehicle
Mass (kg)
RCS (m²)

Purposes: comms

External: N2YO · Heavens-Above · Gunter

§ Orbital elements

Epoch: 2026-09-19T11:24:13.139712Z

Period
93.91 min
Inclination
97.2842°
Eccentricity
0.0001054
Mean motion
15.33445208 rev/d
Perigee alt
464.8 km
Apogee alt
466.3 km
Semi-major
6,843.7 km
B*
3.9511e-4
RAAN
275.6593°
Arg perigee
101.6142°
Mean anomaly
258.5219°
Rev number
2,250

§ Raw data

STARLINK-374411 68858U 26094V   26262.47515208  .00012702  00000+0  39511-3 0  99992 68858  97.2842 275.6593 0001054 101.6142 258.5219 15.33445208 22507

JSON: /api/v1/satellites/68858 · /tle

For live sub-satellite position, see the globe view (requires WebGL).

§ Visibility from observer

Set your observer location to see the next 7 days of passes ≥ 10°. The values pass through the URL so the page stays shareable.

No JS? Fill the form by hand. The geolocation button needs JavaScript.